Location: Newark
(25.6108°S, 54.5803°W)
Time: 13:33:19
(UTC+00:00)

Courier 1B Rocket - Pass Details

Date: 28 October 2020
Orbit: 920 x 1202 km, 28.2° (Epoch: 01 December)

Event Time Altitude Azimuth Distance (km) Brightness Sun altitude
Rises 07:37:54 0° 318° (NW) 4,026 - -16.6°
Reaches altitude 10° 07:41:07 10° 328° (NNW) 3,034 - -15.9°
Exits shadow 07:41:56 13° 331° (NNW) 2,800 6.9 -15.8°
Maximum altitude 07:47:33 31° 27° (NNE) 1,811 6.4 -14.6°
Drops below altitude 10° 07:53:39 10° 87° (E) 2,870 8.5 -13.3°
Sets 07:56:35 0° 97° (E) 3,779 9.7 -12.7°
